Location: Estes Par
(40.3770°N, 105.5210°W)
Time: 01:25:30
(UTC-06:00)

Oscar 11 - Pass Details

Date: 22 June 2018
Orbit: 613 x 626 km, 97.6° (Epoch: 23 September)

Event Time Altitude Azimuth Distance (km) Brightness Sun altitude
Rises 21:26:41 0° 203° (SSW) 2,863 10.3 -8.6°
Reaches altitude 10° 21:29:24 10° 222° (SW) 1,962 9.6 -9.0°
Maximum altitude 21:32:25 19° 267° (W) 1,478 9.6 -9.4°
Drops below altitude 10° 21:35:28 10° 312° (NW) 1,971 11.3 -9.8°
Sets 21:38:13 0° 331° (NNW) 2,882 12.1 -10.2°
